Erie, PA

9:27 AM EDT on October 21, 2019 (GMT -0400)
Erie International

Weather History for KERI - August, 2019

Change the Weather History Date:

Thursday, August 15, 2019

  Actual Average Record
Temperature  
Mean Temperature 71 °F 71 °F  
Max Temperature 80 °F 79 °F 92 °F (1959)
Min Temperature 62 °F 63 °F 50 °F (1968)
Degree Days  
Heating Degree Days 0 0  
Month to date heating degree days 0 0  
Since 1 June heating degree days 38 68  
Since 1 July heating degree days 0 7  
Cooling Degree Days 6 6  
Month to date cooling degree days 122 98  
Year to date cooling degree days 587 473  
Since 1 June cooling degree days 554 434  
Growing Degree Days 21 (Base 50)    
Moisture  
Dew Point 61 °F    
Average Humidity 71    
Maximum Humidity 84    
Minimum Humidity 58    
Precipitation  
Precipitation 0.00 in 0.11 in 0.73 in (1981)
Month to date precipitation 1.35 1.72  
Year to date precipitation 23.85 24.08  
Snow  
Snow 0.00 in 0.00 in - ()
Month to date snowfall 0.0 0.0  
Since 1 June snowfall 0.0 0.0  
Since 1 July snowfall 0.0 0.0  
Snow Depth 0.00 in    
Sea Level Pressure  
Sea Level Pressure 29.94 in    
Wind  
Wind Speed 6 mph (NE)    
Max Wind Speed 16 mph    
Max Gust Speed 20 mph    
Visibility 10 miles    
Events      
T = Trace of Precipitation, MM = Missing Value Source: NWS Daily Summary

Daily Weather History Graph

Daily Weather History Graph

Search for Another Location

Airport or City:

Astronomy

Aug. 15, 2019 Rise Set
Actual Time 6:28 AM EDT 8:21 PM EDT
Civil Twilight 5:58 AM EDT 8:51 PM EDT
Nautical Twilight 5:21 AM EDT 9:28 PM EDT
Astronomical Twilight 4:41 AM EDT 10:07 PM EDT
Moon 8:49 PM EDT (8/15) 6:20 AM EDT (8/15)
Length of Visible Light 14h 53m
Length of Day
13h 53m
Full, 100% of the Moon is Illuminated
Aug 15
Full
Aug 23
Last Quarter
Aug 30
New
Sep 5
First Quarter
Sep 14
Full

Hourly Weather History & Observations

Time (EDT) Temp. Heat Index Dew Point Humidity Pressure Visibility Wind Dir Wind Speed Gust Speed Precip Events Conditions
12:51 AM 66.9 °F - 55.0 °F 66% 29.97 in 10.0 mi ENE 3.5 mph - N/A   Clear
1:51 AM 64.9 °F - 55.9 °F 73% 29.97 in 10.0 mi ENE 4.6 mph - N/A   Clear
2:51 AM 62.1 °F - 55.9 °F 80% 29.97 in 10.0 mi Calm Calm - N/A   Clear
3:51 AM 63.0 °F - 57.0 °F 81% 29.97 in 10.0 mi East 3.5 mph - N/A   Clear
4:51 AM 64.0 °F - 57.0 °F 78% 29.96 in 10.0 mi East 3.5 mph - N/A   Clear
5:51 AM 64.9 °F - 57.9 °F 78% 29.95 in 10.0 mi East 5.8 mph - N/A   Clear
6:51 AM 66.0 °F - 59.0 °F 78% 29.95 in 10.0 mi ENE 4.6 mph - N/A   Clear
7:51 AM 66.9 °F - 59.0 °F 76% 29.96 in 10.0 mi Calm Calm - N/A   Clear
8:51 AM 70.0 °F - 60.1 °F 71% 29.97 in 10.0 mi Calm Calm - N/A   Partly Cloudy
9:51 AM 73.0 °F - 61.0 °F 66% 29.96 in 10.0 mi Calm Calm - N/A   Clear
10:51 AM 75.9 °F - 62.1 °F 62% 29.96 in 10.0 mi WSW 4.6 mph - N/A   Partly Cloudy
11:51 AM 77.0 °F - 63.0 °F 62% 29.96 in 10.0 mi North 10.4 mph - N/A   Scattered Clouds
12:51 PM 77.0 °F - 64.0 °F 64% 29.95 in 10.0 mi North 8.1 mph - N/A   Partly Cloudy
1:51 PM 80.1 °F 81.7 °F 64.0 °F 58% 29.93 in 10.0 mi NNE 11.5 mph - N/A   Scattered Clouds
2:51 PM 79.0 °F - 64.0 °F 60% 29.91 in 10.0 mi NNE 11.5 mph - N/A   Clear
4:51 PM 75.9 °F - 63.0 °F 64% 29.91 in 10.0 mi NNE 12.7 mph - N/A   Scattered Clouds
5:51 PM 75.9 °F - 64.0 °F 67% 29.91 in 10.0 mi ENE 12.7 mph - N/A   Partly Cloudy
6:51 PM 73.9 °F - 64.0 °F 71% 29.89 in 10.0 mi NE 10.4 mph - N/A   Clear
7:51 PM 73.9 °F - 63.0 °F 68% 29.91 in 10.0 mi ENE 11.5 mph - N/A   Mostly Cloudy
8:51 PM 73.0 °F - 64.0 °F 73% 29.91 in 10.0 mi ENE 9.2 mph - N/A   Overcast
9:51 PM 72.0 °F - 64.0 °F 76% 29.93 in 10.0 mi East 6.9 mph - N/A   Partly Cloudy
10:51 PM 71.1 °F - 63.0 °F 75% 29.93 in 10.0 mi Calm Calm - N/A   Clear
11:51 PM 68.0 °F - 63.0 °F 84% 29.92 in 10.0 mi Calm Calm - N/A   Partly Cloudy